Regional Weather Roundup
Issued by NWS Charleston, SC

Current Version | Previous Version | Text Only | Print | Product List | Glossary Off
Versions: 1 2 3 4 5 6 7 8 9 10 11 12 13 14 15 16 17 18 19 20 21 22 23 24 25 26 27 28 29 30 31 32 33 34 35 36 37 38 39 40 41 42 43 44 45 46 47 48 49 50

000
ASUS42 KCHS 291812
RWRCHS

REGIONAL WEATHER ROUNDUP
NATIONAL WEATHER SERVICE CHARLESTON SC
200 PM EDT MON JUN 29 2015

NOTE: "FAIR" INDICATES FEW OR NO CLOUDS BELOW 12,000 FEET WITH NO
SIGNIFICANT WEATHER AND/OR OBSTRUCTIONS TO VISIBILITY.

NOT ALL STATIONS ARE QUALITY CONTROLLED BY THE NATIONAL
WEATHER SERVICE. USE DATA WITH CAUTION...ESPECIALLY
DEWPOINT OBSERVATIONS.

SCZ027-030-031-034>040-042>050-291900-
...SOUTHEAST SOUTH CAROLINA...

CITY           SKY/WX    TMP DP  RH WIND       PRES   REMARKS
N CHARLESTON   PTSUNNY   87  59  38 W8        29.98F
6HR MIN TEMP:  76; 6HR MAX TEMP:  88;

WATERFRONT PAR   N/A     86  59  39 VRB3      29.96F
MOUNT PLEASANT FAIR      88  57  35 W6        29.98F
JOHNS ISLAND   FAIR      90  63  40 W10       29.99S HX  90
PINOPOLIS      NOT AVBL
MONCKS CORNER  FAIR      90  55  31 SW9       29.97F
SUMMERVILLE    FAIR      88  59  37 SW8       29.99F
BEAUFORT MCAS  PTSUNNY   87  62  43 W12       30.00S
6HR MIN TEMP:  75; 6HR MAX TEMP:  88;

BEAUFORT ARPT  FAIR      88  63  42 NW9       30.00S
HILTON HEAD IS PTSUNNY   88  64  45 NW6       30.01F
WALTERBORO     PTCLDY    88  54  31 W13       29.99F
ALLENDALE      FAIR      88  57  35 VRB7      29.99S

...SOUTHERN MIDLANDS AND PEE DEE...

CITY           SKY/WX    TMP DP  RH WIND       PRES   REMARKS
GEORGETOWN     NOT AVBL
KINGSTREE      NOT AVBL
ORANGEBURG     SUNNY     89  53  29 W16G23    29.98F
6HR MIN TEMP:  71; 6HR MAX TEMP:  89;

BARNWELL       MOCLDY    90  57  33 W8        29.99F
AIKEN          FAIR     N/A N/A N/A W15G23    30.03F
MANNING        FAIR      88  45  22 W12G18    29.97
COLUMBIA       MOSUNNY   88  54  31 W16       29.97F
6HR MIN TEMP:  70; 6HR MAX TEMP:  88;

SUMTER         MOSUNNY   87  53  30 SW14G20   29.96S
6HR MIN TEMP:  73; 6HR MAX TEMP:  87;

FLORENCE       SUNNY     89  53  29 W13       29.96F
6HR MIN TEMP:  73; 6HR MAX TEMP:  90;

MYRTLE BEACH   MOSUNNY   86  70  58 S13       29.98F HX  90
N MYRTLE BEACH MOSUNNY   84  72  67 S9        29.96F
6HR MIN TEMP:  76; 6HR MAX TEMP:  86;


$$

GAZ063-065-086>088-099>101-113>116-118-119-134>141-150-291900-
...SOUTHEAST GEORGIA...

CITY           SKY/WX    TMP DP  RH WIND       PRES   REMARKS
SAVANNAH ARPT  CLOUDY    86  58  38 NW12      30.01F
6HR MIN TEMP:  73; 6HR MAX TEMP:  88;

HUNTER AAF     PTSUNNY   87  67  51 NW12      29.99S HX  90
6HR MIN TEMP:  74; 6HR MAX TEMP:  87;

FORT STEWART   CLOUDY    86  67  52 W8        30.00S
6HR MIN TEMP:  74; 6HR MAX TEMP:  86;

STATESBORO     PTSUNNY   87  66  49 W9        30.01F
SYLVANIA       MOCLDY    88  63  43 NW9       30.01F
CLAXTON        FAIR      86  64  48 W8        30.02S

...CSRA...CENTRAL AND FAR SOUTHEAST GEORGIA...

CITY           SKY/WX    TMP DP  RH WIND       PRES   REMARKS
THOMSON        MOSUNNY   89  62  40 W8        30.06S
AUGUSTA-BUSH   MOSUNNY   89  55  31 SW13G20   29.99F
6HR MIN TEMP:  68; 6HR MAX TEMP:  91; 6HR PCP: TRACE;

AUGUSTA-DANIEL MOSUNNY   88  55  32 NW16G23   30.01F
SWAINSBORO     FAIR      90  61  37 NW9       30.02F
VIDALIA        PTSUNNY   86  63  45 NW6       30.03F
EASTMAN        FAIR      88  62  41 NW9       30.05F
HAZLEHURST     MOCLDY    85  66  51 W3        30.02F
ALMA           CLOUDY    84  64  50 W8        30.04S
6HR MIN TEMP:  73; 6HR MAX TEMP:  85;

WAYCROSS       CLOUDY    87  72  59 W8        30.03F HX  93
JESUP          FAIR      86  70  58 W7        30.03S HX  90
BAXLEY         FAIR      86  63  45 W7        30.03F
BRUNSWICK      CLOUDY    84  72  65 W5        30.03F
SAINT SIMONS   CLOUDY    84  70  62 W6        30.02F
6HR MIN TEMP:  73; 6HR MAX TEMP:  85;


$$

SCZ027-028-034-036>038-045-046-048>050-GAZ119-141-291900-
...LAKE AND SUPPLEMENTAL COASTAL OBSERVATIONS...

STATION/POSITION TIME  TEMP    WIND        PRES    WAVE   SWELL
                       AIR SEA DIR/SP/G            HT/PER HT/PER/DIR
                 (UTC) (F)     (DEG/KT/KT) (MB)    (FT/S) (FT/S/D)
UPR LAKE MARION  NOT AVBL
WINYAH BAY       NOT AVBL
LAKE MURRAY      1700   83     290/  6/ 16 1014.6F
ACE BASIN NERRS  NOT AVBL
FORT PULASKI     1700   83 85  280/ 12/ 16 1016.7F
SAPELO ISLAND    1700   85     260/  2     1017.0S

$$

ANZ835-935-AMZ111-154-330-350-352-354-370-450-454-472-291900-
...C-MAN AND BUOY OBSERVATIONS...

STATION/POSITION TIME  TEMP    WIND        PRES    WAVE   SWELL
                       AIR SEA DIR/SP/G            HT/PER HT/PER/DIR
                 (UTC) (F)     (DEG/KT/KT) (MB)    (FT/S) (FT/S/D)
BUOY 41004       1750   81 83  250/ 10/ 14 1015.1F   4/ 7   3/ 7
BUOY 41008       1750   78 81  230/  4/  6 1017.1F   2/ 8   2/100/ 8
FOLLY BEACH CMAN 1700   87     250/  6/  9 1015.6F
CAPERS NEARSHORE 1708   83     250/ 10/ 12 1015.6F
FRIPP NEARSHORE  1700   82     230/ 10/ 12 1015.9F


STATION/POSITION TIME  TEMP    WIND        PRES    WAVE   SWELL
                       AIR SEA DIR/SP/G            HT/PER HT/PER/DIR
                 (UTC) (F)     (DEG/KT/KT) (MB)    (FT/S) (FT/S/D)
5E ST. MARYS GA  1721      78                N/A     2/ 8
FRYING PAN BUOY  1650   80 80  260/  4/  6 1015.5    4/ 7   3/160/ 7
BUOY 41025       1750   79 81  170/  8/ 10 1015.3F   4/ 8   3/140/ 8
CAPE LOOKOUT NC  1700   78     120/  7/  8 1015.2F
BUOY 41002       1750   80 80  200/ 12/ 16 1018.8R   6/ 7   5/220/ 7
BUOY 41010       1720   84 85  250/ 10/ 14 1018.8R
ST AUGUSTINE FL  1700   82 75  300/  6/  8 1018.3R


$$


USA.gov is the U.S. government's official web portal to all federal, state and local government web resources and services.